Regional Weather Roundup
Issued by NWS New Orleans/Baton Rouge, LA

Home | Current Version | Previous Version | Graphics & Text | Print | Product List | Glossary On
Versions: 1 2 3 4 5 6 7 8 9 10 11 12 13 14 15 16 17 18 19 20 21 22 23 24 25 26 27 28 29 30 31 32 33 34 35 36 37 38 39 40 41 42 43 44 45 46 47 48 49 50
666
ASUS44 KLIX 251205
RWRLIX
NEW ORLEANS REGIONAL WEATHER ROUNDUP
NATIONAL WEATHER SERVICE NEW ORLEANS LA
700 AM CDT FRI JUL 25 2014

NOTE: "FAIR" INDICATES FEW OR NO CLOUDS BELOW 12,000 FEET WITH NO
      SIGNIFICANT WEATHER AND/OR OBSTRUCTIONS TO VISIBILITY.
      SKY/WX - SKY CONDITION AND SIGNIFICANT WEATHER.
      TMP - AIR TEMPERATURE.     DP    - DEWPOINT TEMPERATURE.
      RH  - RELATIVE HUMIDITY.   PRES  - PRESSURE.
      HI  - HEAT INDEX.          WCI   - WIND CHILL INDEX.

*  THESE STATIONS ARE NOT NWS OR FAA STATIONS AND ARE NOT UNDER
   NWS QUALITY CONTROL.

LAZ038-040-048-061>063-065>067-069-251300-
SOUTHEAST LOUISIANA

CITY           SKY/WX    TMP DP  RH WIND       PRES   REMARKS
N.O. AUDUBON   NOT AVBL
N.O. INTL ARPT PTCLDY    78  75  90 W5        30.02R FOG
6HR MIN TEMP:  77; 6HR MAX TEMP:  79;

N.O. LAKEFRONT CLEAR     82  75  79 W10       30.02R HAZE
6HR MIN TEMP:  80; 6HR MAX TEMP:  83;

N.O. DOWNTOWN*   N/A     79  72  78 CALM      30.03R
6HR MIN TEMP:  79; 6HR MAX TEMP:  81;

SLIDELL        CLEAR     74  72  93 CALM      30.01R FOG
6HR MIN TEMP:  74; 6HR MAX TEMP:  78;

BATON ROUGE    CLEAR     75  73  93 CALM      30.02R FOG
6HR MIN TEMP:  74; 6HR MAX TEMP:  76;

BOOTHVILLE     PTCLDY    81  77  88 W8        30.02R
6HR MIN TEMP:  80; 6HR MAX TEMP:  82;

BELLE CHASSE   MOCLDY    78  74  87 CALM      30.02R FOG
6HR MIN TEMP:  75; 6HR MAX TEMP:  78;

BOGALUSA*        N/A     76  73  88 CALM      30.03R FOG
6HR MIN TEMP:  75; 6HR MAX TEMP:  77;

GALLIANO*      NOT AVBL
NEW ROADS*       N/A     74  73  97 CALM      30.02S FOG
6HR MIN TEMP:  74; 6HR MAX TEMP:  77;

GONZALES*        N/A     75  75 100 CALM      30.02R
6HR MIN TEMP:  74; 6HR MAX TEMP:  76;

HAMMOND*       CLEAR     75  72  88 CALM      30.04R
HOUMA*         CLEAR     75  72  88 CALM      30.02R
PORT FOURCHON* MOSUNNY   82  75  78 W9        30.04R

$$

MSZ070-080>082-251300-
SOUTHERN MISSISSIPPI

CITY           SKY/WX    TMP DP  RH WIND       PRES   REMARKS
MCCOMB         MOCLDY    73  71  93 CALM      30.04R FOG
6HR MIN TEMP:  72; 6HR MAX TEMP:  75;

GULFPORT       CLEAR     79  74  84 CALM      30.00R HAZE
6HR MIN TEMP:  78; 6HR MAX TEMP:  80;

BILOXI         CLEAR     79  75  89 CALM      30.01R
6HR MIN TEMP:  77; 6HR MAX TEMP:  80; 6HR PCP: TRACE;

PASCAGOULA     CLEAR     74  73  97 CALM      30.01R
6HR MIN TEMP:  72; 6HR MAX TEMP:  74;

STENNIS ARPT*  CLEAR    N/A N/A N/A CALM      30.01  FOG

$$

COASTAL OBSERVATIONS
LAKE AND NEARSHORE STATIONS

STATION/POSITION TIME  TEMP    WIND        PRES    WAVE
                       AIR SEA DIR/SP/G            HT/PER
                 (UTC) (F)     (DEG/KT/KT) (MB)    (FT/S)
PASCAGOULA       1200   78     340/  4/  4 1015.5
WAVELAND YACHT   1200   77     310/  3/  4 1015.5
GRAND ISLE       1200   81 84  270/  8/ 10 1017.3
SOUTHWEST PASS   1200   83 84  270/ 15/ 19 1016.9
NEW CANAL        1200   80 82  220/  4/  5 1017.0
SHELL BEACH      1200   78 81  250/  8/ 10 1016.2

OFFSHORE STATIONS

STATION/POSITION TIME  TEMP    WIND        PRES    WAVE
                       AIR SEA DIR/SP/G            HT/PER
                 (UTC) (F)     (DEG/KT/KT) (MB)    (FT/S)
64 S DAUPHIN ISL 1054   81 84  290/ 12/ 14 1016.7

$$




USA.gov is the U.S. government's official web portal to all federal, state and local government web resources and services.